Weather History for Kalispell, MT

Change the Weather History Date:

Monday, December 17, 2012

  Actual Average Record
Temperature  
Mean Temperature 33 °F 22 °F  
Max Temperature 39 °F 29 °F 47 °F (1980)
Min Temperature 26 °F 15 °F -24 °F (1964)
Degree Days  
Heating Degree Days 32 43  
Month to date heating degree days 581 702  
Since 1 July heating degree days 2561 2906  
Cooling Degree Days 0 0  
Month to date cooling degree days 0 0  
Year to date cooling degree days 192 147  
Moisture  
Dew Point 27 °F    
Average Humidity 76    
Maximum Humidity 92    
Minimum Humidity 59    
Precipitation  
Precipitation 0.10 in 0.05 in 0.47 in (1961)
Month to date precipitation 0.98 0.82  
Year to date precipitation 20.12 16.25  
Snow  
Snow 0.10 in - - ()
Month to date snowfall 3.3  
Year to date snowfall 30.8  
Since 1 July snowfall 5.7  
Snow Depth 2.00 in    
Sea Level Pressure  
Sea Level Pressure 29.34 in    
Wind  
Wind Speed 12 mph (South)    
Max Wind Speed 23 mph    
Max Gust Speed 30 mph    
Visibility 6 miles    
Events Rain , Snow    
T = Trace of Precipitation, MM = Missing Value Source: NWS Daily Summary

Daily Weather History Graph

Daily Weather History Graph

Search for Another Location

Airport:

Trip Planner

Search our weather history database for the weather conditions in past years. The results will help you decide how hot, cold, wet, or windy it might be!

Date:

Astronomy

Dec. 17, 2012 Rise Set
Actual Time 8:23 AM MST 4:43 PM MST
Civil Twilight 7:46 AM MST 5:20 PM MST
Nautical Twilight 7:06 AM MST 6:00 PM MST
Astronomical Twilight 6:28 AM MST 6:38 PM MST
Moon 11:13 AM MST (12/17) 10:32 PM MST (12/17)
Length of Visible Light 9h 33m
Length of Day
8h 20m
Waxing Crescent, 25% of the Moon is Illuminated
Dec 17
Waxing Crescent
Dec 19
First Quarter
Dec 28
Full
Jan 4
Last Quarter
Jan 11
New

Hourly Weather History & Observations

Time (MST) Temp. Windchill Dew Point Humidity Pressure Visibility Wind Dir Wind Speed Gust Speed Precip Events Conditions
12:55 AM 30.9 °F 21.2 °F 19.9 °F 64% 29.41 in 10.0 mi SE 12.7 mph 20.7 mph N/A   Overcast
1:31 AM 28.4 °F 16.6 °F 24.8 °F 86% 29.33 in 2.5 mi SE 16.1 mph - 0.00 in Snow Light Snow
1:38 AM 28.4 °F 18.0 °F 24.8 °F 86% 29.32 in 3.0 mi SE 12.7 mph - 0.00 in Snow Light Snow
1:51 AM 28.9 °F 18.2 °F 25.0 °F 85% 29.39 in 1.8 mi SSE 13.8 mph - 0.00 in Snow Light Snow
2:05 AM 28.4 °F 17.5 °F 26.6 °F 93% 29.31 in 1.0 mi SE 13.8 mph 20.7 mph 0.01 in Snow Light Snow
2:17 AM 28.4 °F 18.0 °F 26.6 °F 93% 29.30 in 1.2 mi SSE 12.7 mph - 0.01 in Snow Light Snow
2:55 AM 28.9 °F 18.2 °F 27.0 °F 92% 29.36 in 1.0 mi SSE 13.8 mph 18.4 mph 0.03 in Snow Light Snow
3:41 AM 28.4 °F 18.0 °F 26.6 °F 93% 29.28 in 1.5 mi SE 12.7 mph - 0.03 in Snow Light Snow
3:45 AM 28.4 °F 17.0 °F 26.6 °F 93% 29.28 in 3.0 mi SE 15.0 mph 21.9 mph 0.03 in Snow Light Snow
3:55 AM 30.0 °F 19.5 °F 27.0 °F 88% 29.34 in 9.0 mi SE 13.8 mph - 0.03 in   Overcast
4:55 AM 30.2 °F - 26.6 °F 86% 29.25 in 10.0 mi Calm Calm - N/A   Overcast
5:28 AM 28.4 °F 23.3 °F 26.6 °F 93% 29.25 in 10.0 mi WSW 4.6 mph - N/A   Overcast
5:55 AM 28.9 °F 25.2 °F 26.1 °F 89% 29.31 in 5.0 mi WNW 3.5 mph - 0.00 in Snow Light Snow
5:58 AM 28.4 °F - 26.6 °F 93% 29.24 in 1.8 mi Calm Calm - 0.00 in Snow Light Snow
6:04 AM 28.4 °F - 26.6 °F 93% 29.24 in 0.8 mi Calm Calm - 0.01 in Snow Light Snow
6:16 AM 28.4 °F - 26.6 °F 93% 29.23 in 1.5 mi Calm Calm - 0.02 in Snow Light Snow
6:20 AM 28.4 °F - 26.6 °F 93% 29.23 in 3.0 mi Calm Calm - 0.02 in Snow Light Snow
6:46 AM 28.4 °F - 26.6 °F 93% 29.21 in 10.0 mi Calm Calm - 0.02 in   Overcast
6:55 AM 28.0 °F - 26.1 °F 92% 29.29 in 10.0 mi North - - 0.02 in   Overcast
7:37 AM 28.4 °F 20.4 °F 26.6 °F 93% 29.22 in 1.5 mi SW 8.1 mph - 0.00 in Snow Light Snow
7:44 AM 28.4 °F 20.4 °F 28.4 °F 100% 29.22 in 1.0 mi SSW 8.1 mph - 0.01 in Snow Light Snow
7:50 AM 28.4 °F 22.2 °F 28.4 °F 100% 29.22 in 1.5 mi SSW 5.8 mph - 0.01 in Snow Light Snow
7:55 AM 28.9 °F 22.8 °F 28.0 °F 96% 29.30 in 2.0 mi SSW 5.8 mph - 0.01 in Snow Light Snow
8:00 AM 28.4 °F 23.3 °F 28.4 °F 100% 29.22 in 5.0 mi SW 4.6 mph - 0.00 in Snow Light Snow
8:09 AM 28.4 °F 21.2 °F 28.4 °F 100% 29.22 in 6.0 mi SW 6.9 mph - 0.00 in   Overcast
8:55 AM 30.0 °F 24.1 °F 28.0 °F 92% 29.29 in 10.0 mi SW 5.8 mph - 0.00 in   Overcast
9:55 AM 32.0 °F 26.4 °F 28.9 °F 88% 29.29 in 10.0 mi Variable 5.8 mph - N/A   Overcast
10:37 AM 33.8 °F 25.3 °F 30.2 °F 87% 29.23 in 7.0 mi South 11.5 mph - N/A Snow Light Snow
10:55 AM 35.1 °F 25.2 °F 30.9 °F 85% 29.30 in 10.0 mi South 16.1 mph - 0.00 in   Overcast
11:55 AM 36.0 °F 26.0 °F 32.0 °F 86% 29.31 in 10.0 mi SSE 17.3 mph - 0.00 in   Overcast
12:55 PM 37.9 °F 29.2 °F 30.0 °F 73% 29.31 in 10.0 mi South 15.0 mph - 0.00 in Rain Light Rain
1:55 PM 37.9 °F 32.7 °F 30.0 °F 73% 29.35 in 9.0 mi South 6.9 mph - 0.01 in Snow Light Snow
2:55 PM 37.0 °F 27.4 °F 27.0 °F 67% 29.39 in 10.0 mi SSW 17.3 mph - 0.00 in   Overcast
5:24 PM 33.8 °F 22.8 °F 28.4 °F 81% 29.44 in 4.0 mi SW 18.4 mph 25.3 mph 0.00 in Snow Light Snow
5:36 PM 33.8 °F 23.5 °F 28.4 °F 81% 29.45 in 2.5 mi SSW 16.1 mph 25.3 mph 0.00 in Snow Light Snow
5:55 PM 33.1 °F 24.4 °F 28.9 °F 85% 29.52 in 2.5 mi SSW 11.5 mph 25.3 mph 0.00 in Snow Light Snow
6:02 PM 33.8 °F 23.5 °F 28.4 °F 81% 29.46 in 7.0 mi SSW 16.1 mph 24.2 mph 0.00 in Snow Light Snow
6:55 PM 35.1 °F - 25.0 °F 67% 29.54 in 10.0 mi North - - 0.00 in   Overcast
7:55 PM 34.0 °F 24.6 °F 23.0 °F 64% 29.53 in 10.0 mi WSW 13.8 mph 25.3 mph N/A   Mostly Cloudy
8:55 PM 30.9 °F 20.2 °F 25.0 °F 79% 29.57 in 5.0 mi SW 15.0 mph 23.0 mph 0.00 in Snow Light Snow
9:55 PM 30.9 °F 21.7 °F 25.0 °F 79% 29.60 in 10.0 mi SSW 11.5 mph - 0.00 in   Overcast
10:55 PM 30.0 °F 20.0 °F 25.0 °F 82% 29.63 in 10.0 mi SSW 12.7 mph - N/A   Overcast
11:55 PM 28.9 °F 19.2 °F 26.1 °F 89% 29.65 in 10.0 mi SSE 11.5 mph - N/A   Overcast